Flint, MI

10:56 AM EST on February 20, 2018 (GMT -0500)
Bishop International

Weather History for KFNT - March, 2013

Change the Weather History Date:

Tuesday, March 5, 2013

  Actual Average Record
Temperature  
Mean Temperature 25 °F 30 °F  
Max Temperature 35 °F 39 °F 66 °F (2004)
Min Temperature 14 °F 21 °F -10 °F (1948)
Degree Days  
Heating Degree Days 40 35  
Month to date heating degree days 208 178  
Since 1 July heating degree days 4861 5266  
Cooling Degree Days 0 0  
Month to date cooling degree days 0 0  
Year to date cooling degree days 0 0  
Moisture  
Dew Point 19 °F    
Average Humidity 71    
Maximum Humidity 81    
Minimum Humidity 61    
Precipitation  
Precipitation 0.00 in 0.06 in 0.71 in (2011)
Month to date precipitation 0.02 0.28  
Year to date precipitation 5.48 3.39  
Snow  
Snow 0.00 in 0.20 in 6.10 in (1999)
Month to date snowfall 0.2 1.4  
Since 1 July snowfall 38.7 40.0  
Snow Depth 2.00 in    
Sea Level Pressure  
Sea Level Pressure 30.01 in    
Wind  
Wind Speed 11 mph (ENE)    
Max Wind Speed 21 mph    
Max Gust Speed 24 mph    
Visibility 10 miles    
Events      
T = Trace of Precipitation, MM = Missing Value Source: NWS Daily Summary

Daily Weather History Graph

Daily Weather History Graph

Search for Another Location

Airport or City:

Trip Planner

Search our weather history database for the weather conditions in past years. The results will help you decide how hot, cold, wet, or windy it might be!

Date:

Astronomy

Mar. 05, 2013 Rise Set
Actual Time 7:03 AM EST 6:29 PM EST
Civil Twilight 6:35 AM EST 6:57 PM EST
Nautical Twilight 6:02 AM EST 7:30 PM EST
Astronomical Twilight 5:29 AM EST 8:03 PM EST
Moon 2:21 AM EST (3/5) 12:01 PM EST (3/5)
Length of Visible Light 12h 22m
Length of Day
11h 25m
Last Quarter, 41% of the Moon is Illuminated
Mar 5
Last Quarter
Mar 11
New
Mar 19
First Quarter
Mar 27
Full
Apr 3
Last Quarter

Hourly Weather History & Observations

Time (EST) Temp. Windchill Dew Point Humidity Pressure Visibility Wind Dir Wind Speed Gust Speed Precip Events Conditions
12:53 AM 21.9 °F - 12.9 °F 68% 30.15 in 10.0 mi Calm Calm - N/A   Clear
2:53 AM 19.9 °F 13.4 °F 12.0 °F 71% 30.14 in 10.0 mi ENE 4.6 mph - N/A   Clear
3:53 AM 15.1 °F - 10.9 °F 84% 30.13 in 10.0 mi Calm Calm - N/A   Clear
4:53 AM 19.0 °F 9.0 °F 12.9 °F 77% 30.11 in 10.0 mi ENE 8.1 mph - N/A   Clear
5:11 AM 19.4 °F 9.5 °F 14.0 °F 80% 30.07 in 10.0 mi East 8.1 mph - N/A   Mostly Cloudy
5:40 AM 21.2 °F 13.6 °F 15.8 °F 80% 30.07 in 10.0 mi East 5.8 mph - N/A   Overcast
5:53 AM 21.0 °F 13.4 °F 15.1 °F 78% 30.12 in 10.0 mi East 5.8 mph - N/A   Overcast
6:53 AM 23.0 °F 14.7 °F 17.6 °F 80% 30.07 in 10.0 mi East 6.9 mph - N/A   Overcast
7:53 AM 25.0 °F 14.2 °F 19.0 °F 78% 30.09 in 10.0 mi East 11.5 mph - N/A   Overcast
8:34 AM 26.6 °F 16.2 °F 19.4 °F 74% 30.06 in 10.0 mi East 11.5 mph - N/A   Mostly Cloudy
8:53 AM 26.1 °F 14.5 °F 19.0 °F 75% 30.09 in 10.0 mi East 13.8 mph - N/A   Overcast
9:53 AM 28.0 °F 17.5 °F 19.9 °F 72% 30.08 in 10.0 mi ESE 12.7 mph - N/A   Overcast
10:53 AM 28.9 °F 19.2 °F 21.0 °F 72% 30.06 in 10.0 mi East 11.5 mph - N/A   Mostly Cloudy
11:53 AM 32.0 °F 22.5 °F 21.9 °F 66% 30.04 in 10.0 mi ENE 12.7 mph - N/A   Mostly Cloudy
12:17 PM 32.0 °F 23.0 °F 21.2 °F 64% 30.00 in 10.0 mi East 11.5 mph - N/A   Scattered Clouds
12:53 PM 33.1 °F 23.4 °F 21.9 °F 64% 30.01 in 10.0 mi East 13.8 mph - N/A   Partly Cloudy
1:53 PM 34.0 °F 25.0 °F 23.0 °F 64% 29.98 in 10.0 mi ENE 12.7 mph 19.6 mph N/A   Partly Cloudy
2:53 PM 35.1 °F 25.5 °F 24.1 °F 64% 29.94 in 10.0 mi East 15.0 mph 21.9 mph N/A   Scattered Clouds
3:53 PM 33.1 °F 22.6 °F 23.0 °F 66% 29.94 in 10.0 mi ENE 16.1 mph - N/A   Scattered Clouds
4:53 PM 33.1 °F 22.2 °F 21.9 °F 64% 29.90 in 10.0 mi ENE 17.3 mph - N/A   Partly Cloudy
5:53 PM 30.0 °F 18.7 °F 21.0 °F 69% 29.91 in 10.0 mi ENE 16.1 mph - N/A   Partly Cloudy
6:27 PM 28.4 °F 17.5 °F 21.2 °F 74% 29.88 in 10.0 mi ENE 13.8 mph - N/A   Mostly Cloudy
6:53 PM 28.0 °F 16.5 °F 21.0 °F 75% 29.93 in 10.0 mi NE 15.0 mph - N/A   Overcast
7:38 PM 26.6 °F 15.7 °F 19.4 °F 74% 29.89 in 10.0 mi NE 12.7 mph 23.0 mph N/A   Overcast
7:53 PM 27.0 °F 14.3 °F 19.9 °F 75% 29.94 in 10.0 mi ENE 17.3 mph 24.2 mph N/A   Overcast
8:53 PM 27.0 °F 16.1 °F 21.0 °F 78% 29.92 in 10.0 mi NE 12.7 mph - N/A   Overcast
9:53 PM 27.0 °F 16.7 °F 21.0 °F 78% 29.92 in 10.0 mi NNE 11.5 mph - N/A   Overcast
10:26 PM 26.6 °F 16.8 °F 21.2 °F 80% 29.89 in 10.0 mi NNE 10.4 mph - N/A   Scattered Clouds
10:53 PM 27.0 °F 17.3 °F 21.0 °F 78% 29.92 in 10.0 mi NNE 10.4 mph - N/A   Partly Cloudy
11:53 PM 27.0 °F 17.3 °F 21.0 °F 78% 29.92 in 10.0 mi NNE 10.4 mph - N/A   Clear